{"data":{"norad_id":41384,"epoch":"2026-09-19T19:11:38.543424Z","epoch_age_seconds":86168,"freshness":"FRESH","line1":"1 41384U 16015A   26262.79975166  .00000155  00000+0  00000+0 0  9990","line2":"2 41384   5.5813  94.5948 0020242 175.6695  48.9652  1.00278849 38613","mean_motion":1.00278849,"eccentricity":0.0020242,"inclination_deg":5.5813,"raan_deg":94.5948,"arg_perigee_deg":175.6695,"mean_anomaly_deg":48.9652,"bstar":0,"rev_number":3861,"period_min":1435.9957402383,"perigee_km":35699.268939653,"apogee_km":35869.960623967,"semimajor_km":42162.75178181,"source":"CELESTRAK","updated_at":"2026-09-20T09:00:35.223850Z"}}